STARLINK-1776, 46682

Orbit data source: Space-Track

STARLINK-1776, 46682 is a payload satellite owned by SpaceX/Seattle (US) in LEO that was launched on Sun, 18 Oct 2020 UTC via an FALCON 9 launch vehicle from the Air Force Eastern Test Range (AFETR). Payloads include a variety of satellites, spacecraft, and rockets equipped with specific instruments for various scientific and technological missions. These include communications satellites like Starlink; space stations such as the ISS; scientific satellites like the Hubble; Earth observation satellites from companies like Planet Labs, Umbra, and HawkEye 360; GPS; miniature CubeSats for education and research; and military/defense satellites.

Loading next visibility...
STARLINK-1776 details
Identifier
46682, 2020-073N
Orbit
LEO
Last TLE update13 hours ago
Origin
Flag of USSpaceX/Seattle (US)
ManufacturerSpaceX/Seattle
MissionOperational Commercial Communications
Bus & MotorSTARLINK, Unknown motor
Mass260 kg wet, ~248 kg dry
Launch date (UTC)
2020-10-18 (4 years ago)
Launch vehicle
FALCON 9
Launch site
Air Force Eastern Test Range (AFETR)
Object type
Payload
Rocket body
Debris
Shape & HBRBox + 1 Pan, 8.86 m
Radar Cross Section13.562 m², Large (>1 m²)

Expand to show TLE details & history

TLE from 13 hours ago
0 STARLINK-1776
1 46682U 20073N   24336.91667824  .01243495  00000-0  36382-1 0  9990
2 46682  53.0515 172.9904 0001291 101.5834 317.7628 15.31997412  5735
Epoch: 2024-12-01T22:00Z
Definitive object data (Epoch: 2024-12-01T22:00:00.999Z)
Latitude43.56561°
Longitude177.09046°
Altitude473.551 km
Speed7.635 km/s
True Right ascension14h 33m 22s
True Declination43° 23' 12"
Sunlit
Object was in daylight at TLE epoch
Visualization TLE readout
Latitude-52.06835°
Longitude22.81691°
Altitude484.775 km
Speed7.622 km/s
Apparent Right ascension00h 20m 45s
Apparent Declination-59° 53' 17"
Sunlit
Object is in daylight
Visualization observer readout
Local Sidereal Time09:10:17
Azimuth219.693° SW
Elevation-54.532°
Doppler factor1
Orbital elements
Apogee altitude471.012 km
Perigee altitude469.244 km
Semi-major axis6,848.265 km
Eccentricity0.0001291
Inclination53.0515°
RAAN172.9904°
Arg. of periapsis101.5834°
True anomaly317.75285°
Mean anomaly317.7628°
Eccentric anomaly317.75783°
Mean motion3.82977 °/min
BSTAR0.036382
Orbital period94 mins
Loading maneuver chart data...
Loading historical data...
Loading historical data...
Loading historical data...
Loading historical data...
Loading historical data...
Loading historical data...
Loading historical data...

STARLINK-1776 Visibility forecast

Observer location: undefined°, undefined

Span
Click to sort rows by Start time (UTC) header in descending order
Start Az.
Max El. time (UTC)
Max El. Az.
Max El.
End time (UTC)
End Az.
5 mins2024-12-02 15:06:34.260Z183.117° SSW2024-12-02 15:09:34.260Z120.697° SE22.068°2024-12-02 15:11:34.260Z81.374° E
5 mins2024-12-02 16:44:34.260Z266.008° W2024-12-02 16:46:34.260Z318.582° NNW31.997°2024-12-02 16:49:34.260Z33.829° NE
4 mins2024-12-02 21:41:34.260Z353.526° N2024-12-02 21:42:34.260Z19.28° NNE23.768°2024-12-02 21:45:34.260Z84.27° E
5 mins2024-12-02 23:18:34.260Z286.917° WNW2024-12-02 23:20:34.260Z227.793° WSW33.837°2024-12-02 23:23:34.260Z156.36° SSE
|